COSMOS 2251 DEB, 37975

Orbit data source: Space-Track

COSMOS 2251 DEB, 37975 is space debris in LEO originally from a launch on Wed, 16 Jun 1993 UTC launched from the Plesetsk Missile And Space Complex (PKMTR). The debris from Iridium 33, an American commercial communications satellite, has been tracked extensively since its accidental collision with the defunct Russian satellite Cosmos 2251 in 2009. This event, occurring at high speed in low Earth orbit (LEO), generated thousands of pieces of space debris, significantly increasing the risk of further collisions. The Iridium 33 debris cloud has impacted space traffic management and orbital debris mitigation strategies, making it a subject of ongoing study in space situational awareness.

Loading next visibility...
Identifier
37975, 1993-036BQA
Orbit
LEO
Country
Flag of CISCIS
Related business
Manufacturer
Unknown
Mission
Spacecraft
Bus & Motor
Unknown
Mass
Unknown
Launch date (UTC)
1993-06-16 (33 years ago)
Launch vehicle
Unknown
Launch site
Plesetsk Missile And Space Complex (PKMTR)
Object type
Payload
Rocket body
Debris
Shape & HBR
Unknown shape, 0.1 m
Radar Cross Section
Small (<0.1 m²)

Expand to show TLE details & history
Last TLE update: 9 hours ago

TLE from 9 hours ago
0 COSMOS 2251 DEB
1 37975U 93036BQA 26120.08657752  .00032500  00000-0  37536-2 0  9999
2 37975  74.0010  50.9638 0074814   5.8874 354.3164 14.83428591717929
Epoch: 2026-04-30T02:04Z
TLE epoch observation values (Epoch: 2026-04-30T02:04:40.297Z)
Latitude
-0.00007°
Longitude
161.75764°
Altitude
569.096 km
Speed
7.605 km/s
True Right ascension
03h 23m 51s
True Declination
0° 00' 00"
Sunlit
Object was in daylight at epoch
Visualization orbit readout
Latitude
Unknown
Longitude
Unknown
Altitude
Unknown
Speed
Unknown
Apparent Right ascension
Unknown
Apparent Declination
Unknown
Sunlit
N/A
Visualization observer readout
Local Sidereal Time
18:32:55
Azimuth
Unknown
Elevation
Unknown
Doppler factor
Unknown
Orbital elements
Apogee altitude
668.424 km
Perigee altitude
563.771 km
Semi-major axis
6,994.234 km
Eccentricity
0.00748
Inclination
74.001°
RAAN
50.9638°
Arg. of periapsis
5.8874°
True anomaly
354.2307°
Mean anomaly
354.3164°
Eccentric anomaly
354.27363°
Mean motion
3.7105 °/min
Orbital period
97.02 mins
BSTAR
0.0037536
Loading maneuver chart data...
Computing Atmospheric mass density...

Documentation

Showing up to 5 results
|